sat.trackr.live / text

‹ back to catalog

STARLINK-34383

NORAD 64305 · 2025-123Q

PAYLOAD ACTIVE UNKNOWN

§ Identity

Operator
Country
US
Launch date
2025-06-08
Launch site
AFWTR
Launch vehicle
Mass (kg)
RCS (m²)

Purposes: comms

External: N2YO · Heavens-Above · Gunter

§ Orbital elements

Epoch: 2026-09-20T14:21:24.721920Z

Period
94.14 min
Inclination
69.9996°
Eccentricity
0.0003957
Mean motion
15.29589404 rev/d
Perigee alt
474.3 km
Apogee alt
479.8 km
Semi-major
6,855.2 km
B*
5.8854e-4
RAAN
60.6421°
Arg perigee
266.0404°
Mean anomaly
94.0319°
Rev number
7,087

§ Raw data

STARLINK-343831 64305U 25123Q   26263.59820280  .00016835  00000+0  58854-3 0  99992 64305  69.9996  60.6421 0003957 266.0404  94.0319 15.29589404 70878

JSON: /api/v1/satellites/64305 · /tle

For live sub-satellite position, see the globe view (requires WebGL).

§ Visibility from observer

Set your observer location to see the next 7 days of passes ≥ 10°. The values pass through the URL so the page stays shareable.

No JS? Fill the form by hand. The geolocation button needs JavaScript.